Location: Caracas
(10.5033°N, 66.8422°W)
Time: 16:36:55
(UTC-04:00)

Hubble Space Telescope - Pass Details

Date: 10 November 2017
Orbit: 537 x 541 km, 28.5° (Epoch: 24 November)

Event Time Altitude Azimuth Distance (km) Brightness Sun altitude
Exits shadow 05:04:21 - 210° (SSW) 2,288 3.8 -18.9°
Reaches altitude 10° 05:05:58 10° 198° (SSW) 1,776 3.4 -18.6°
Maximum altitude 05:09:03 20° 149° (SSE) 1,250 3.2 -17.8°
Drops below altitude 10° 05:12:08 10° 100° (E) 1,778 4.7 -17.1°
Sets 05:14:50 0° 84° (E) 2,669 5.6 -16.4°
